| time (UTC) | temp F | wind direction | speed MPH | gust MPH | rain 1hr in | rain 24hr in | rain mn in | humidity % | barometer mb |
| 20260901205529 | 87 | 248 | 2.0 | 3.0 | 0.00 | 0.00 | 0.00 | 79 | 1013.1 |
| 20260901205024 | 87 | 221 | 4.0 | 4.0 | 0.00 | 0.00 | 0.00 | 77 | 1012.7 |
| 20260901204520 | 87 | 253 | 3.0 | 3.0 | 0.00 | 0.00 | 0.00 | 75 | 1012.9 |
| 20260901204015 | 88 | 270 | 1.0 | 5.0 | 0.00 | 0.00 | 0.00 | 73 | 1012.9 |
| 20260901203509 | 88 | 236 | 3.0 | 4.0 | 0.00 | 0.00 | 0.00 | 70 | 1013.0 |
| 20260901203004 | 89 | 237 | 2.0 | 3.0 | 0.00 | 0.00 | 0.00 | 69 | 1013.1 |
| 20260901202459 | 89 | 277 | 0.0 | 5.0 | 0.00 | 0.00 | 0.00 | 70 | 1012.9 |
| 20260901201955 | 90 | 211 | 3.0 | 4.0 | 0.00 | 0.00 | 0.00 | 72 | 1013.1 |
| 20260901201450 | 89 | 250 | 0.0 | 5.0 | 0.00 | 0.00 | 0.00 | 68 | 1013.2 |
| 20260901200944 | 91 | 286 | 2.0 | 3.0 | 0.00 | 0.00 | 0.00 | 70 | 1013.1 |
| 20260901200439 | 90 | 232 | 2.0 | 5.0 | 0.00 | 0.00 | 0.00 | 73 | 1013.2 |
| 20260901195938 | 90 | 228 | 4.0 | 4.0 | 0.00 | 0.00 | 0.00 | 68 | 1013.2 |
| 20260901195437 | 91 | 213 | 3.0 | 4.0 | 0.00 | 0.00 | 0.00 | 67 | 1013.4 |
| 20260901194931 | 90 | 263 | 3.0 | 3.0 | 0.00 | 0.00 | 0.00 | 70 | 1013.2 |
| 20260901194427 | 90 | 235 | 2.0 | 5.0 | 0.00 | 0.00 | 0.00 | 73 | 1013.3 |
| 20260901193923 | 90 | 287 | 2.0 | 4.0 | 0.00 | 0.00 | 0.00 | 72 | 1013.3 |
| 20260901193422 | 89 | 242 | 3.0 | 4.0 | 0.00 | 0.00 | 0.00 | 74 | 1013.3 |
| 20260901192921 | 91 | 243 | 3.0 | 4.0 | 0.00 | 0.00 | 0.00 | 74 | 1013.5 |
| 20260901192417 | 91 | 270 | 3.0 | 4.0 | 0.00 | 0.00 | 0.00 | 73 | 1013.3 |
| 20260901191913 | 90 | 217 | 4.0 | 4.0 | 0.00 | 0.00 | 0.00 | 71 | 1013.5 |
| 20260901191409 | 90 | 263 | 3.0 | 3.0 | 0.00 | 0.00 | 0.00 | 72 | 1013.5 |
| 20260901190905 | 90 | 259 | 3.0 | 4.0 | 0.00 | 0.00 | 0.00 | 72 | 1013.5 |
| 20260901190359 | 90 | 265 | 4.0 | 4.0 | 0.00 | 0.00 | 0.00 | 75 | 1013.6 |
| 20260901185857 | 89 | 255 | 3.0 | 4.0 | 0.00 | 0.00 | 0.00 | 75 | 1013.5 |
| 20260901185356 | 89 | 270 | 0.0 | 3.0 | 0.00 | 0.00 | 0.00 | 76 | 1013.5 |
| 20260901184852 | 89 | 234 | 4.0 | 4.0 | 0.00 | 0.00 | 0.00 | 81 | 1013.8 |
| 20260901184347 | 87 | 245 | 2.0 | 3.0 | 0.00 | 0.00 | 0.00 | 83 | 1013.7 |
| 20260901183842 | 87 | 275 | 2.0 | 3.0 | 0.00 | 0.00 | 0.00 | 80 | 1014.0 |
| 20260901183342 | 87 | 252 | 4.0 | 4.0 | 0.00 | 0.00 | 0.00 | 80 | 1013.8 |
| 20260901182838 | 87 | 266 | 3.0 | 5.0 | 0.00 | 0.00 | 0.00 | 81 | 1014.1 |
| 20260901182338 | 88 | 249 | 3.0 | 4.0 | 0.00 | 0.00 | 0.00 | 79 | 1013.9 |
| 20260901181833 | 87 | 254 | 2.0 | 3.0 | 0.00 | 0.00 | 0.00 | 84 | 1013.9 |
| 20260901181327 | 86 | 235 | 2.0 | 3.0 | 0.00 | 0.00 | 0.00 | 83 | 1014.2 |
| 20260901180826 | 87 | 251 | 3.0 | 3.0 | 0.00 | 0.00 | 0.00 | 85 | 1014.2 |
| 20260901180325 | 85 | 279 | 2.0 | 4.0 | 0.00 | 0.00 | 0.00 | 84 | 1014.1 |
| 20260901175825 | 85 | 270 | 2.0 | 4.0 | 0.00 | 0.00 | 0.00 | 86 | 1014.2 |
| 20260901175319 | 85 | 200 | 1.0 | 4.0 | 0.00 | 0.00 | 0.00 | 86 | 1014.0 |
| 20260901174814 | 85 | 221 | 2.0 | 3.0 | 0.00 | 0.00 | 0.00 | 88 | 1014.0 |
| 20260901174310 | 84 | 255 | 3.0 | 3.0 | 0.00 | 0.00 | 0.00 | 93 | 1014.2 |
| 20260901173806 | 83 | 255 | 3.0 | 4.0 | 0.00 | 0.00 | 0.00 | 92 | 1014.4 |
| 20260901173300 | 83 | 263 | 3.0 | 3.0 | 0.00 | 0.00 | 0.00 | 91 | 1014.4 |
| 20260901172757 | 84 | 257 | 2.0 | 3.0 | 0.00 | 0.00 | 0.00 | 90 | 1014.3 |
| 20260901172256 | 83 | 262 | 3.0 | 3.0 | 0.00 | 0.00 | 0.00 | 91 | 1014.4 |
| 20260901171754 | 83 | 261 | 3.0 | 3.0 | 0.00 | 0.00 | 0.00 | 91 | 1014.6 |
| 20260901171253 | 83 | 254 | 2.0 | 3.0 | 0.00 | 0.00 | 0.00 | 90 | 1014.4 |
| 20260901170752 | 84 | 251 | 2.0 | 3.0 | 0.00 | 0.00 | 0.00 | 90 | 1014.6 |
| 20260901170247 | 83 | 265 | 2.0 | 3.0 | 0.00 | 0.00 | 0.00 | 89 | 1014.6 |
| 20260901165745 | 84 | 259 | 3.0 | 3.0 | 0.00 | 0.00 | 0.00 | 89 | 1014.6 |
| 20260901165240 | 84 | 264 | 2.0 | 3.0 | 0.00 | 0.00 | 0.00 | 87 | 1014.8 |
| 20260901164737 | 84 | 262 | 3.0 | 3.0 | 0.00 | 0.00 | 0.00 | 86 | 1014.8 |
| 20260901164233 | 85 | 280 | 2.0 | 4.0 | 0.00 | 0.00 | 0.00 | 85 | 1014.8 |
| 20260901163727 | 86 | 270 | 2.0 | 4.0 | 0.00 | 0.00 | 0.00 | 83 | 1014.8 |
| 20260901163227 | 87 | 264 | 3.0 | 4.0 | 0.00 | 0.00 | 0.00 | 81 | 1014.9 |
| 20260901162722 | 88 | 304 | 3.0 | 5.0 | 0.00 | 0.00 | 0.00 | 80 | 1015.0 |
| 20260901162221 | 87 | 315 | 3.0 | 3.0 | 0.00 | 0.00 | 0.00 | 79 | 1015.0 |
| 20260901161720 | 87 | 254 | 4.0 | 4.0 | 0.00 | 0.00 | 0.00 | 79 | 1015.2 |
| 20260901161215 | 88 | 262 | 2.0 | 5.0 | 0.00 | 0.00 | 0.00 | 80 | 1015.0 |
| 20260901160712 | 88 | 264 | 0.0 | 5.0 | 0.00 | 0.00 | 0.00 | 78 | 1015.2 |
| 20260901160207 | 88 | 286 | 2.0 | 4.0 | 0.00 | 0.00 | 0.00 | 78 | 1015.0 |
| 20260901155705 | 88 | 253 | 3.0 | 5.0 | 0.00 | 0.00 | 0.00 | 76 | 1015.1 |
| 20260901155201 | 88 | 249 | 4.0 | 4.0 | 0.00 | 0.00 | 0.00 | 79 | 1014.9 |
| 20260901154656 | 87 | 253 | 2.0 | 5.0 | 0.00 | 0.00 | 0.00 | 78 | 1015.2 |
| 20260901154150 | 87 | 201 | 2.0 | 5.0 | 0.00 | 0.00 | 0.00 | 77 | 1015.2 |
| 20260901153646 | 87 | 303 | 2.0 | 5.0 | 0.00 | 0.00 | 0.00 | 82 | 1015.2 |
| 20260901153145 | 87 | 243 | 1.0 | 4.0 | 0.00 | 0.00 | 0.00 | 82 | 1015.2 |
| 20260901152640 | 86 | 257 | 2.0 | 5.0 | 0.00 | 0.00 | 0.00 | 83 | 1015.3 |
| 20260901152138 | 85 | 266 | 3.0 | 3.0 | 0.00 | 0.00 | 0.00 | 86 | 1015.5 |
| 20260901151635 | 84 | 255 | 3.0 | 5.0 | 0.00 | 0.00 | 0.00 | 88 | 1015.1 |
| 20260901151133 | 83 | 278 | 3.0 | 3.0 | 0.00 | 0.00 | 0.00 | 89 | 1015.4 |
| 20260901150627 | 83 | 270 | 4.0 | 4.0 | 0.00 | 0.00 | 0.00 | 89 | 1015.1 |
| 20260901150126 | 83 | 264 | 3.0 | 3.0 | 0.00 | 0.00 | 0.00 | 89 | 1015.5 |
| 20260901145624 | 83 | 266 | 3.0 | 3.0 | 0.00 | 0.00 | 0.00 | 89 | 1015.6 |
| 20260901145124 | 83 | 247 | 3.0 | 3.0 | 0.00 | 0.00 | 0.00 | 87 | 1015.5 |
| 20260901144619 | 84 | 264 | 3.0 | 3.0 | 0.00 | 0.00 | 0.00 | 86 | 1015.3 |
| 20260901144115 | 84 | 267 | 3.0 | 4.0 | 0.00 | 0.00 | 0.00 | 86 | 1015.3 |
| 20260901143610 | 84 | 264 | 2.0 | 2.0 | 0.00 | 0.00 | 0.00 | 84 | 1015.1 |
| 20260901143106 | 85 | 290 | 2.0 | 4.0 | 0.00 | 0.00 | 0.00 | 85 | 1015.2 |
| 20260901142602 | 85 | 315 | 2.0 | 4.0 | 0.00 | 0.00 | 0.00 | 85 | 1015.1 |
| 20260901142101 | 85 | 251 | 2.0 | 4.0 | 0.00 | 0.00 | 0.00 | 84 | 1015.2 |
| 20260901141556 | 84 | 262 | 3.0 | 4.0 | 0.00 | 0.00 | 0.00 | 86 | 1015.4 |
| 20260901141051 | 84 | 251 | 2.0 | 5.0 | 0.00 | 0.00 | 0.00 | 86 | 1015.4 |
| 20260901140549 | 85 | 237 | 3.0 | 3.0 | 0.00 | 0.00 | 0.00 | 84 | 1015.3 |
| 20260901140044 | 84 | 254 | 5.0 | 5.0 | 0.00 | 0.00 | 0.00 | 87 | 1015.2 |
| 20260901135543 | 83 | 196 | 5.0 | 5.0 | 0.00 | 0.00 | 0.00 | 87 | 1015.3 |
| 20260901135038 | 82 | 263 | 3.0 | 4.0 | 0.00 | 0.00 | 0.00 | 89 | 1015.4 |
| 20260901134535 | 82 | 248 | 5.0 | 5.0 | 0.00 | 0.00 | 0.00 | 90 | 1015.6 |
| 20260901134029 | 82 | 306 | 1.0 | 6.0 | 0.00 | 0.00 | 0.00 | 90 | 1015.4 |
| 20260901133528 | 81 | 233 | 3.0 | 4.0 | 0.00 | 0.00 | 0.00 | 90 | 1015.3 |
| 20260901133027 | 81 | 270 | 1.0 | 2.0 | 0.00 | 0.00 | 0.00 | 92 | 1015.6 |
| 20260901132527 | 81 | 289 | 3.0 | 4.0 | 0.00 | 0.00 | 0.00 | 94 | 1015.4 |
| 20260901132021 | 80 | 252 | 2.0 | 5.0 | 0.00 | 0.00 | 0.00 | 94 | 1015.9 |
| 20260901131521 | 80 | 180 | 1.0 | 2.0 | 0.00 | 0.00 | 0.00 | 95 | 1015.8 |
| 20260901131016 | 79 | 255 | 3.0 | 5.0 | 0.00 | 0.00 | 0.00 | 95 | 1015.8 |
| 20260901130511 | 79 | 239 | 2.0 | 3.0 | 0.00 | 0.00 | 0.00 | 97 | 1015.9 |
| 20260901130010 | 78 | 233 | 0.0 | 3.0 | 0.00 | 0.00 | 0.00 | 99 | 1016.1 |
| 20260901125509 | 78 | 232 | 3.0 | 3.0 | 0.00 | 0.00 | 0.00 | 99 | 1016.0 |
| 20260901125009 | 78 | 270 | 2.0 | 2.0 | 0.00 | 0.00 | 0.00 | 99 | 1016.1 |
| 20260901124505 | 76 | 194 | 1.0 | 3.0 | 0.00 | 0.00 | 0.00 | 99 | 1016.0 |
| 20260901123958 | 77 | 252 | 2.0 | 2.0 | 0.00 | 0.00 | 0.00 | 99 | 1016.0 |
| 20260901123454 | 76 | 221 | 2.0 | 3.0 | 0.00 | 0.00 | 0.00 | 99 | 1016.0 |
| 20260901122951 | 75 | 277 | 0.0 | 1.0 | 0.00 | 0.00 | 0.00 | 99 | 1015.9 |
| 20260901122451 | 75 | 251 | 3.0 | 3.0 | 0.00 | 0.00 | 0.00 | 99 | 1016.1 |
| 20260901121950 | 75 | 210 | 2.0 | 3.0 | 0.00 | 0.00 | 0.00 | 99 | 1016.3 |
| 20260901121445 | 74 | 264 | 3.0 | 4.0 | 0.00 | 0.00 | 0.00 | 99 | 1016.2 |
| 20260901120941 | 74 | 261 | 2.0 | 3.0 | 0.00 | 0.00 | 0.00 | 99 | 1016.1 |
| 20260901120435 | 74 | 231 | 2.0 | 3.0 | 0.00 | 0.00 | 0.00 | 99 | 1016.2 |
| 20260901115931 | 74 | 276 | 2.0 | 2.0 | 0.00 | 0.00 | 0.00 | 99 | 1016.1 |
| 20260901115430 | 73 | 254 | 1.0 | 2.0 | 0.00 | 0.00 | 0.00 | 99 | 1016.2 |
| 20260901114928 | 73 | 254 | 1.0 | 2.0 | 0.00 | 0.00 | 0.00 | 99 | 1015.9 |
| 20260901114423 | 73 | 254 | 1.0 | 2.0 | 0.00 | 0.00 | 0.00 | 99 | 1016.0 |
| 20260901113922 | 73 | 254 | 1.0 | 2.0 | 0.00 | 0.00 | 0.00 | 99 | 1016.1 |
| 20260901113421 | 73 | 243 | 0.0 | 2.0 | 0.00 | 0.00 | 0.00 | 99 | 1015.8 |
| 20260901112916 | 73 | 270 | 1.0 | 3.0 | 0.00 | 0.00 | 0.00 | 99 | 1016.0 |
| 20260901112411 | 73 | 270 | 1.0 | 3.0 | 0.00 | 0.00 | 0.00 | 99 | 1016.3 |
| 20260901111906 | 72 | 248 | 2.0 | 3.0 | 0.00 | 0.00 | 0.00 | 99 | 1016.1 |
| 20260901111404 | 72 | 270 | 2.0 | 2.0 | 0.00 | 0.00 | 0.00 | 99 | 1016.3 |
| 20260901110903 | 72 | 270 | 2.0 | 2.0 | 0.00 | 0.00 | 0.00 | 99 | 1016.4 |
| 20260901110359 | 72 | 253 | 2.0 | 2.0 | 0.00 | 0.00 | 0.00 | 99 | 1016.4 |
| 20260901105855 | 72 | 270 | 2.0 | 3.0 | 0.00 | 0.00 | 0.00 | 99 | 1016.0 |
| 20260901105350 | 72 | 255 | 3.0 | 3.0 | 0.00 | 0.00 | 0.00 | 99 | 1016.2 |
| 20260901104846 | 72 | 258 | 2.0 | 2.0 | 0.00 | 0.00 | 0.00 | 99 | 1016.0 |
| 20260901104341 | 72 | 258 | 2.0 | 2.0 | 0.00 | 0.00 | 0.00 | 99 | 1016.0 |
| 20260901103836 | 71 | 240 | 2.0 | 3.0 | 0.00 | 0.00 | 0.00 | 99 | 1015.7 |
| 20260901103331 | 71 | 262 | 1.0 | 2.0 | 0.00 | 0.00 | 0.00 | 99 | 1015.7 |
| 20260901102826 | 72 | 190 | 0.0 | 0.0 | 0.00 | 0.00 | 0.00 | 99 | 1015.5 |
| 20260901102325 | 71 | 190 | 0.0 | 0.0 | 0.00 | 0.00 | 0.00 | 99 | 1015.5 |
| 20260901101822 | 72 | 190 | 0.0 | 0.0 | 0.00 | 0.00 | 0.00 | 99 | 1015.7 |
| 20260901101321 | 71 | 270 | 2.0 | 2.0 | 0.00 | 0.00 | 0.00 | 99 | 1015.5 |
| 20260901100821 | 71 | 270 | 2.0 | 2.0 | 0.00 | 0.00 | 0.00 | 99 | 1015.7 |
| 20260901100316 | 71 | 270 | 2.0 | 2.0 | 0.00 | 0.00 | 0.00 | 99 | 1015.6 |
| 20260901095814 | 71 | 270 | 2.0 | 2.0 | 0.00 | 0.00 | 0.00 | 99 | 1015.6 |
| 20260901095312 | 71 | 270 | 2.0 | 2.0 | 0.00 | 0.00 | 0.00 | 99 | 1015.8 |
| 20260901094806 | 71 | 270 | 2.0 | 2.0 | 0.00 | 0.00 | 0.00 | 99 | 1015.9 |
| 20260901094301 | 71 | 270 | 2.0 | 2.0 | 0.00 | 0.00 | 0.00 | 99 | 1015.9 |
| 20260901093756 | 71 | 270 | 2.0 | 2.0 | 0.00 | 0.00 | 0.00 | 99 | 1016.0 |
| 20260901093255 | 71 | 270 | 2.0 | 2.0 | 0.00 | 0.00 | 0.00 | 99 | 1015.9 |
| 20260901092751 | 71 | 270 | 2.0 | 2.0 | 0.00 | 0.00 | 0.00 | 99 | 1016.1 |
| 20260901092247 | 71 | 270 | 2.0 | 2.0 | 0.00 | 0.00 | 0.00 | 99 | 1015.9 |
| 20260901091742 | 71 | 270 | 2.0 | 2.0 | 0.00 | 0.00 | 0.00 | 99 | 1016.2 |
| 20260901091237 | 71 | 277 | 1.0 | 2.0 | 0.00 | 0.00 | 0.00 | 99 | 1015.9 |
| 20260901090732 | 71 | 277 | 1.0 | 2.0 | 0.00 | 0.00 | 0.00 | 99 | 1015.7 |
| 20260901090227 | 71 | 261 | 2.0 | 2.0 | 0.00 | 0.00 | 0.00 | 99 | 1016.1 |
| 20260901085723 | 71 | 261 | 2.0 | 2.0 | 0.00 | 0.00 | 0.00 | 99 | 1016.1 |
| 20260901085218 | 71 | 251 | 1.0 | 2.0 | 0.00 | 0.00 | 0.00 | 99 | 1016.0 |
| 20260901084715 | 71 | 251 | 1.0 | 2.0 | 0.00 | 0.00 | 0.00 | 99 | 1016.0 |
| 20260901084210 | 70 | 233 | 2.0 | 3.0 | 0.00 | 0.00 | 0.00 | 99 | 1016.0 |
| 20260901083705 | 70 | 270 | 1.0 | 2.0 | 0.00 | 0.00 | 0.00 | 99 | 1015.9 |
| 20260901083204 | 70 | 243 | 1.0 | 2.0 | 0.00 | 0.00 | 0.00 | 99 | 1016.0 |
| 20260901082658 | 70 | 261 | 2.0 | 2.0 | 0.00 | 0.00 | 0.00 | 99 | 1016.2 |
| 20260901082153 | 70 | 270 | 1.0 | 1.0 | 0.00 | 0.00 | 0.00 | 99 | 1016.2 |
| 20260901081649 | 70 | 282 | 2.0 | 3.0 | 0.00 | 0.00 | 0.00 | 99 | 1016.1 |
| 20260901081148 | 70 | 251 | 2.0 | 2.0 | 0.00 | 0.00 | 0.00 | 99 | 1016.0 |
| 20260901080643 | 70 | 270 | 2.0 | 3.0 | 0.00 | 0.00 | 0.00 | 99 | 1016.0 |
| 20260901080142 | 70 | 270 | 1.0 | 2.0 | 0.00 | 0.00 | 0.00 | 99 | 1016.2 |
| 20260901075637 | 70 | 233 | 0.0 | 2.0 | 0.00 | 0.00 | 0.00 | 99 | 1016.0 |
| 20260901075137 | 70 | 263 | 1.0 | 2.0 | 0.00 | 0.00 | 0.00 | 99 | 1016.1 |
| 20260901074636 | 69 | 240 | 0.0 | 2.0 | 0.00 | 0.00 | 0.00 | 99 | 1016.4 |
| 20260901074132 | 69 | 264 | 1.0 | 2.0 | 0.00 | 0.00 | 0.00 | 99 | 1016.5 |
| 20260901073628 | 69 | 243 | 2.0 | 2.0 | 0.00 | 0.00 | 0.00 | 99 | 1016.5 |
| 20260901073123 | 69 | 228 | 2.0 | 2.0 | 0.00 | 0.00 | 0.00 | 99 | 1016.3 |
| 20260901072619 | 69 | 261 | 0.0 | 1.0 | 0.00 | 0.00 | 0.00 | 99 | 1016.4 |
| 20260901072113 | 69 | 234 | 0.0 | 1.0 | 0.00 | 0.00 | 0.00 | 99 | 1016.5 |
| 20260901071608 | 69 | 234 | 0.0 | 1.0 | 0.00 | 0.00 | 0.00 | 99 | 1016.4 |
| 20260901071107 | 69 | 234 | 0.0 | 1.0 | 0.00 | 0.00 | 0.00 | 99 | 1016.6 |
| 20260901070601 | 69 | 234 | 0.0 | 1.0 | 0.00 | 0.00 | 0.00 | 99 | 1016.7 |
| 20260901070057 | 69 | 234 | 0.0 | 1.0 | 0.00 | 0.00 | 0.00 | 99 | 1016.7 |
| 20260901065550 | 69 | 234 | 0.0 | 1.0 | 0.00 | 0.00 | 0.00 | 99 | 1016.5 |
| 20260901065045 | 69 | 249 | 1.0 | 1.0 | 0.00 | 0.00 | 0.00 | 99 | 1016.5 |
| 20260901064542 | 69 | 254 | 0.0 | 2.0 | 0.00 | 0.00 | 0.00 | 99 | 1016.5 |
| 20260901064039 | 69 | 255 | 1.0 | 2.0 | 0.00 | 0.00 | 0.00 | 99 | 1016.5 |
| 20260901063535 | 68 | 254 | 1.0 | 1.0 | 0.00 | 0.00 | 0.00 | 99 | 1016.8 |
| 20260901063031 | 68 | 263 | 1.0 | 2.0 | 0.00 | 0.00 | 0.00 | 99 | 1016.8 |
| 20260901062526 | 68 | 254 | 1.0 | 1.0 | 0.00 | 0.00 | 0.00 | 99 | 1016.7 |
| 20260901062022 | 69 | 240 | 1.0 | 1.0 | 0.00 | 0.00 | 0.00 | 99 | 1016.8 |
| 20260901061518 | 68 | 240 | 0.0 | 2.0 | 0.00 | 0.00 | 0.00 | 99 | 1016.9 |
| 20260901061013 | 69 | 270 | 0.0 | 2.0 | 0.00 | 0.00 | 0.00 | 99 | 1017.2 |
| 20260901060507 | 68 | 270 | 1.0 | 1.0 | 0.00 | 0.00 | 0.00 | 99 | 1017.2 |
| 20260901060002 | 68 | 262 | 1.0 | 1.0 | 0.00 | 0.00 | 0.00 | 99 | 1017.0 |
| 20260901055458 | 68 | 255 | 1.0 | 2.0 | 0.00 | 0.00 | 0.00 | 99 | 1017.0 |
| 20260901054954 | 68 | 270 | 1.0 | 2.0 | 0.00 | 0.00 | 0.00 | 99 | 1017.1 |
| 20260901054451 | 68 | 276 | 2.0 | 2.0 | 0.00 | 0.00 | 0.00 | 99 | 1017.1 |
| 20260901053947 | 69 | 322 | 2.0 | 2.0 | 0.00 | 0.00 | 0.00 | 99 | 1017.0 |
| 20260901053442 | 69 | 215 | 0.0 | 2.0 | 0.00 | 0.00 | 0.00 | 99 | 1017.2 |
| 20260901052938 | 68 | 234 | 1.0 | 2.0 | 0.00 | 0.00 | 0.00 | 99 | 1017.3 |
| 20260901052433 | 68 | 243 | 1.0 | 2.0 | 0.00 | 0.00 | 0.00 | 99 | 1017.5 |
| 20260901051932 | 68 | 254 | 1.0 | 2.0 | 0.00 | 0.00 | 0.00 | 99 | 1017.5 |
| 20260901051427 | 68 | 263 | 1.0 | 2.0 | 0.00 | 0.00 | 0.00 | 99 | 1017.8 |
| 20260901050922 | 68 | 249 | 1.0 | 2.0 | 0.00 | 0.00 | 0.00 | 99 | 1017.7 |
| 20260901050418 | 68 | 249 | 1.0 | 2.0 | 0.00 | 0.00 | 0.00 | 99 | 1017.6 |
| 20260901045917 | 69 | 262 | 1.0 | 2.0 | 0.00 | 0.00 | 0.00 | 99 | 1017.6 |
| 20260901045412 | 68 | 270 | 1.0 | 2.0 | 0.00 | 0.00 | 0.00 | 99 | 1017.5 |
| 20260901044907 | 68 | 255 | 1.0 | 2.0 | 0.00 | 0.00 | 0.00 | 99 | 1017.6 |
| 20260901044403 | 69 | 237 | 2.0 | 2.0 | 0.00 | 0.00 | 0.00 | 99 | 1017.6 |
| 20260901043859 | 69 | 246 | 1.0 | 1.0 | 0.00 | 0.00 | 0.00 | 99 | 1017.9 |
| 20260901043355 | 69 | 263 | 1.0 | 2.0 | 0.00 | 0.00 | 0.00 | 99 | 1017.7 |
| 20260901042854 | 69 | 261 | 0.0 | 1.0 | 0.00 | 0.00 | 0.00 | 99 | 1017.8 |
| 20260901042349 | 69 | 270 | 0.0 | 1.0 | 0.00 | 0.00 | 0.00 | 99 | 1017.8 |
| 20260901041844 | 69 | 278 | 1.0 | 2.0 | 0.00 | 0.00 | 0.00 | 99 | 1017.7 |
| 20260901041339 | 69 | 254 | 0.0 | 2.0 | 0.00 | 0.00 | 0.00 | 99 | 1017.7 |
| 20260901040834 | 69 | 258 | 2.0 | 2.0 | 0.00 | 0.00 | 0.00 | 99 | 1017.4 |
| 20260901040333 | 69 | 249 | 1.0 | 2.0 | 0.00 | 0.00 | 0.00 | 99 | 1017.3 |
| 20260901035832 | 69 | 246 | 2.0 | 2.0 | 0.00 | 1.00 | 1.00 | 99 | 1017.5 |
| 20260901035332 | 69 | 254 | 1.0 | 1.0 | 0.00 | 1.00 | 1.00 | 99 | 1017.5 |
| 20260901034830 | 69 | 251 | 1.0 | 2.0 | 0.00 | 1.00 | 1.00 | 99 | 1017.5 |
| 20260901034326 | 69 | 258 | 2.0 | 2.0 | 0.00 | 1.00 | 1.00 | 99 | 1017.3 |
| 20260901033825 | 69 | 254 | 1.0 | 2.0 | 0.00 | 1.00 | 1.00 | 99 | 1017.6 |
| 20260901033325 | 70 | 300 | 2.0 | 2.0 | 0.00 | 1.00 | 1.00 | 99 | 1017.5 |
| 20260901032823 | 70 | 229 | 2.0 | 2.0 | 0.00 | 1.00 | 1.00 | 99 | 1017.4 |
| 20260901032323 | 70 | 251 | 1.0 | 2.0 | 0.00 | 1.00 | 1.00 | 99 | 1017.7 |
| 20260901031818 | 70 | 277 | 1.0 | 2.0 | 0.00 | 1.00 | 1.00 | 99 | 1017.6 |
| 20260901031314 | 70 | 276 | 1.0 | 2.0 | 0.00 | 1.00 | 1.00 | 99 | 1017.3 |
| 20260901030813 | 70 | 261 | 0.0 | 1.0 | 0.00 | 1.00 | 1.00 | 99 | 1017.5 |
| 20260901030308 | 70 | 262 | 1.0 | 1.0 | 0.00 | 1.00 | 1.00 | 99 | 1017.5 |
| 20260901025808 | 70 | 248 | 2.0 | 2.0 | 0.00 | 1.00 | 1.00 | 99 | 1017.7 |
| 20260901025305 | 70 | 270 | 1.0 | 2.0 | 0.00 | 1.00 | 1.00 | 99 | 1017.9 |
| 20260901024758 | 70 | 270 | 1.0 | 2.0 | 0.00 | 1.00 | 1.00 | 99 | 1017.9 |
| 20260901024257 | 71 | 260 | 2.0 | 2.0 | 0.00 | 1.00 | 1.00 | 99 | 1017.8 |
| 20260901023755 | 71 | 282 | 2.0 | 2.0 | 0.00 | 1.00 | 1.00 | 99 | 1018.0 |
| 20260901023250 | 71 | 258 | 2.0 | 2.0 | 0.00 | 1.00 | 1.00 | 99 | 1018.0 |
| 20260901022746 | 71 | 270 | 1.0 | 1.0 | 0.00 | 1.00 | 1.00 | 99 | 1017.9 |
| 20260901022241 | 71 | 259 | 2.0 | 2.0 | 0.00 | 1.00 | 1.00 | 99 | 1017.9 |
| 20260901021736 | 71 | 270 | 2.0 | 2.0 | 0.00 | 1.00 | 1.00 | 99 | 1018.0 |
| 20260901021232 | 71 | 276 | 2.0 | 2.0 | 0.00 | 1.00 | 1.00 | 99 | 1018.1 |
| 20260901020727 | 71 | 253 | 2.0 | 2.0 | 0.00 | 1.00 | 1.00 | 99 | 1017.9 |
| 20260901020222 | 71 | 253 | 2.0 | 2.0 | 0.00 | 1.00 | 1.00 | 99 | 1018.0 |
| 20260901015717 | 71 | 260 | 2.0 | 2.0 | 0.00 | 1.00 | 1.00 | 99 | 1018.1 |
| 20260901015213 | 71 | 254 | 2.0 | 2.0 | 0.00 | 1.00 | 1.00 | 99 | 1017.9 |
| 20260901014712 | 71 | 231 | 2.0 | 2.0 | 0.00 | 1.00 | 1.00 | 99 | 1018.0 |
| 20260901014209 | 71 | 259 | 2.0 | 2.0 | 0.00 | 1.00 | 1.00 | 99 | 1017.9 |
| 20260901013704 | 71 | 258 | 2.0 | 2.0 | 0.00 | 1.00 | 1.00 | 99 | 1018.0 |
| 20260901013200 | 71 | 270 | 2.0 | 2.0 | 0.00 | 1.00 | 1.00 | 99 | 1018.0 |
| 20260901012655 | 71 | 257 | 1.0 | 2.0 | 0.00 | 1.00 | 1.00 | 99 | 1018.1 |
| 20260901012149 | 71 | 270 | 1.0 | 2.0 | 0.00 | 1.00 | 1.00 | 99 | 1018.3 |
| 20260901011645 | 71 | 255 | 1.0 | 2.0 | 0.00 | 1.00 | 1.00 | 99 | 1018.0 |
| 20260901011144 | 71 | 257 | 1.0 | 2.0 | 0.00 | 1.00 | 1.00 | 99 | 1017.9 |
| 20260901010639 | 71 | 276 | 1.0 | 2.0 | 0.00 | 1.00 | 1.00 | 99 | 1017.9 |
| 20260901010139 | 71 | 270 | 2.0 | 2.0 | 0.00 | 1.00 | 1.00 | 99 | 1018.0 |
| 20260901005638 | 71 | 257 | 1.0 | 2.0 | 0.00 | 1.00 | 1.00 | 99 | 1017.8 |
| 20260901005134 | 71 | 260 | 2.0 | 2.0 | 0.00 | 1.00 | 1.00 | 99 | 1017.7 |
| 20260901004633 | 71 | 287 | 2.0 | 2.0 | 0.00 | 1.00 | 1.00 | 98 | 1018.0 |
| 20260901004128 | 71 | 277 | 1.0 | 2.0 | 0.00 | 1.00 | 1.00 | 98 | 1018.0 |
| 20260901003623 | 71 | 287 | 2.0 | 2.0 | 0.00 | 1.00 | 1.00 | 97 | 1017.8 |
| 20260901003122 | 71 | 260 | 2.0 | 2.0 | 0.00 | 1.00 | 1.00 | 97 | 1017.8 |
| 20260901002622 | 72 | 246 | 3.0 | 3.0 | 0.00 | 1.00 | 1.00 | 97 | 1017.6 |
| 20260901002116 | 72 | 254 | 2.0 | 2.0 | 0.00 | 1.00 | 1.00 | 96 | 1017.6 |
| 20260901001611 | 72 | 276 | 1.0 | 3.0 | 0.00 | 1.00 | 1.00 | 96 | 1017.6 |
| 20260901001107 | 72 | 262 | 2.0 | 3.0 | 0.00 | 1.00 | 1.00 | 95 | 1017.6 |
| 20260901000602 | 72 | 259 | 2.0 | 2.0 | 0.00 | 1.00 | 1.00 | 95 | 1017.4 |
| 20260901000058 | 73 | 249 | 1.0 | 2.0 | 0.00 | 1.00 | 1.00 | 95 | 1017.6 |
| 20260831235551 | 73 | 234 | 1.0 | 2.0 | 0.00 | 1.00 | 1.00 | 95 | 1017.5 |
| 20260831235047 | 73 | 249 | 1.0 | 2.0 | 0.00 | 1.00 | 1.00 | 95 | 1017.5 |
| 20260831234546 | 73 | 262 | 3.0 | 3.0 | 0.00 | 1.00 | 1.00 | 95 | 1017.6 |
| 20260831234042 | 73 | 249 | 0.0 | 2.0 | 0.00 | 1.00 | 1.00 | 94 | 1017.6 |
| 20260831233537 | 73 | 240 | 1.0 | 1.0 | 0.00 | 1.00 | 1.00 | 94 | 1017.8 |
| 20260831233033 | 73 | 259 | 2.0 | 2.0 | 0.00 | 1.00 | 1.00 | 94 | 1017.9 |
| 20260831232528 | 73 | 255 | 2.0 | 2.0 | 0.00 | 1.00 | 1.00 | 94 | 1017.8 |
| 20260831232023 | 73 | 262 | 1.0 | 2.0 | 0.00 | 1.00 | 1.00 | 94 | 1017.9 |
| 20260831231520 | 74 | 246 | 2.0 | 2.0 | 0.00 | 1.00 | 1.00 | 93 | 1017.6 |
| 20260831231015 | 74 | 253 | 2.0 | 2.0 | 0.00 | 1.00 | 1.00 | 93 | 1018.0 |
| 20260831230510 | 74 | 259 | 2.0 | 3.0 | 0.00 | 1.00 | 1.00 | 92 | 1018.1 |
| 20260831230005 | 74 | 270 | 2.0 | 3.0 | 0.00 | 1.00 | 1.00 | 92 | 1018.1 |
| 20260831225501 | 74 | 263 | 1.0 | 2.0 | 0.00 | 1.00 | 1.00 | 92 | 1018.2 |
| 20260831225000 | 74 | 243 | 2.0 | 2.0 | 0.00 | 1.00 | 1.00 | 91 | 1018.1 |
| 20260831224455 | 75 | 249 | 1.0 | 3.0 | 0.00 | 1.00 | 1.00 | 91 | 1018.3 |
| 20260831223950 | 75 | 262 | 0.0 | 3.0 | 0.00 | 1.00 | 1.00 | 90 | 1018.0 |
| 20260831223445 | 75 | 180 | 1.0 | 3.0 | 0.00 | 1.00 | 1.00 | 90 | 1018.0 |
| 20260831222942 | 75 | 203 | 1.0 | 3.0 | 0.00 | 1.00 | 1.00 | 90 | 1017.8 |
| 20260831222437 | 75 | 243 | 1.0 | 2.0 | 0.00 | 1.00 | 1.00 | 89 | 1018.2 |
| 20260831221932 | 76 | 325 | 5.0 | 5.0 | 0.00 | 1.00 | 1.00 | 88 | 1018.1 |
| 20260831221428 | 76 | 210 | 2.0 | 4.0 | 0.00 | 1.00 | 1.00 | 89 | 1018.2 |
| 20260831220923 | 76 | 263 | 1.0 | 3.0 | 0.00 | 1.00 | 1.00 | 88 | 1018.3 |
| 20260831220418 | 76 | 251 | 2.0 | 2.0 | 0.00 | 1.00 | 1.00 | 89 | 1018.3 |
| 20260831215913 | 76 | 225 | 2.0 | 3.0 | 0.00 | 1.00 | 1.00 | 88 | 1018.1 |
| 20260831215409 | 76 | 240 | 0.0 | 3.0 | 0.00 | 1.00 | 1.00 | 88 | 1017.9 |
| 20260831214905 | 76 | 279 | 2.0 | 4.0 | 0.00 | 1.00 | 1.00 | 87 | 1018.0 |
| 20260831214402 | 77 | 281 | 2.0 | 4.0 | 0.00 | 1.00 | 1.00 | 86 | 1018.1 |
| 20260831213858 | 77 | 230 | 3.0 | 6.0 | 0.00 | 1.00 | 1.00 | 86 | 1018.0 |
| 20260831213354 | 77 | 294 | 1.0 | 4.0 | 0.00 | 1.00 | 1.00 | 85 | 1017.7 |
| 20260831212849 | 77 | 232 | 2.0 | 5.0 | 0.00 | 1.00 | 1.00 | 86 | 1018.1 |
| 20260831212346 | 77 | 270 | 1.0 | 4.0 | 0.00 | 1.00 | 1.00 | 86 | 1018.0 |
| 20260831211844 | 77 | 177 | 2.0 | 5.0 | 0.00 | 1.00 | 1.00 | 85 | 1018.2 |
| 20260831211344 | 77 | 229 | 2.0 | 5.0 | 0.00 | 1.00 | 1.00 | 86 | 1017.8 |
| 20260831210844 | 77 | 201 | 2.0 | 4.0 | 0.00 | 1.00 | 1.00 | 86 | 1018.0 |
| 20260831210340 | 77 | 329 | 4.0 | 5.0 | 0.00 | 1.00 | 1.00 | 86 | 1017.9 |
| 20260831205835 | 77 | 199 | 3.0 | 4.0 | 0.00 | 1.00 | 1.00 | 86 | 1017.9 |